sat.trackr.live / text

‹ back to catalog

USA 486

NORAD 62757 · 2025-014Y

PAYLOAD ACTIVE UNKNOWN

§ Identity

Operator
Country
US
Launch date
2025-01-21
Launch site
AFETR
Launch vehicle
Mass (kg)
RCS (m²)

External: N2YO · Heavens-Above · Gunter

§ Orbital elements

Epoch: 2026-09-22T15:37:15.988800Z

Period
91.27 min
Inclination
42.9996°
Eccentricity
0.0000150
Mean motion
15.77738016 rev/d
Perigee alt
336.8 km
Apogee alt
337.0 km
Semi-major
6,715.0 km
B*
1.3066e-3
RAAN
238.2418°
Arg perigee
39.2003°
Mean anomaly
320.8878°
Rev number
9,616

§ Raw data

USA 4861 62757U 25014Y   26265.65087950  .00231946  00000+0  13066-2 0  99922 62757  42.9996 238.2418 0000150  39.2003 320.8878 15.77738016 96162

JSON: /api/v1/satellites/62757 · /tle

For live sub-satellite position, see the globe view (requires WebGL).

§ Visibility from observer

Set your observer location to see the next 7 days of passes ≥ 10°. The values pass through the URL so the page stays shareable.

No JS? Fill the form by hand. The geolocation button needs JavaScript.